www.pogodaiklimat.ru

Погода и климат >> Архив погоды >> Великобритания >> Aberdaron


ПОГОДА в Aberdaron

  • Прогноз погоды в Aberdaron
  • Монитор погоды в Aberdaron
  • Климат города

АРХИВ ПОГОДЫ в Aberdaron

Время (UTC), дата Ветер
(напр.,м/с)
 
Видим.   Явления Облачность Т
(С)
Тd
(С)
f
(%)
Тe
(С)
Тes
(С)
Комфортность P
(гПа)
Po
(гПа)
Тmin
(С)
Tmax
(С)
R
(мм)
R24
(мм)
S
(см)
07 18.04 В 6 40 км н/о +6.3 +3.9 85 +2 +2 1032.3 1020.4
08 18.04 В 6 45 км н/о +7.1 +3.5 78 +3 +3 1032.9 1021.0
09 18.04 В 5 50 км н/о +8.1 +3.5 73 +5 +5 1033.3 1021.4
10 18.04 ЮВ 3 50 км н/о +7.6 +4.2 79 +5 +5 1033.8 1021.9
11 18.04 ЮВ 3 50 км н/о +8.9 +4.8 75 +6 +6 1034.0 1022.2
12 18.04 Ю 3 50 км н/о +8.2 +3.5 72 +6 +6 1034.2 1022.3
13 18.04 Ю 3 50 км н/о +8.2 +3.3 71 +6 +6 1034.5 1022.7
14 18.04 З 2 50 км н/о +8.6 +3.6 71 +7 +7 1034.6 1022.8
15 18.04 Ю 3 50 км н/о +8.2 +3.5 72 +6 +6 1034.2 1022.3
16 18.04 С 3 50 км н/о +8.9 +3.9 71 +7 +7 1034.3 1022.5
17 18.04 С 4 50 км н/о +8.8 +4.6 75 +6 +6 1034.5 1022.7
18 18.04 С 4 45 км н/о +8.2 +5.2 81 +5 +5 1034.9 1023.0 +9.6
19 18.04 СВ 3 50 км н/о +7.6 +3.3 74 +5 +5 1035.1 1023.2
20 18.04 СВ 2 50 км н/о +6.7 +2.4 74 +5 +5 1035.3 1023.4
21 18.04 В 2 50 км н/о +7.0 +1.7 69 +6 +6 1035.5 1023.6
22 18.04 В 2 50 км н/о +7.4 +2.0 69 +6 +6 1035.7 1023.8
23 18.04 СВ 1 50 км н/о +6.8 +1.5 69 +6 +6 1036.0 1024.1
00 19.04 С 1 50 км н/о +6.9 +0.6 64 +6 +6 1036.2 1024.3
01 19.04 ЮВ 1 50 км н/о +7.9 +0.9 61 +7 +7 1036.1 1024.2
02 19.04 В 2 50 км н/о +7.5 +3.7 77 +5 +5 1036.2 1024.3
03 19.04 В 2 45 км н/о +7.4 +4.8 84 +5 +5 1036.0 1024.1
04 19.04 ЮВ 3 50 км н/о +8.1 +4.9 80 +5 +5 1036.0 1024.2
05 19.04 ЮВ 3 45 км н/о +8.2 +4.4 77 +6 +6 1036.0 1024.2
06 19.04 Ю 4 45 км н/о +8.3 +5.4 82 +5 +5 1036.4 1024.6 +6.5
07 19.04 ЮЗ 4 45 км н/о +8.5 +5.4 81 +5 +5 1036.8 1024.9
08 19.04 Ю 4 45 км н/о +8.8 +4.8 76 +6 +6 1036.6 1024.8
09 19.04 Ю 3 35 км н/о +9.6 +7.3 86 +7 +7 1037.1 1025.2
10 19.04 Ю 3 30 км н/о +9.4 +7.7 89 +7 +7 1037.5 1025.6
11 19.04 ЮЗ 5 45 км н/о +10.6 +7.5 81 +8 +8 1037.2 1025.4
12 19.04 ЮЗ 5 26 км н/о +10.0 +8.1 88 +7 +7 1037.3 1025.4
13 19.04 ЮЗ 5 25 км н/о +10.0 +7.8 86 +7 +7 1037.4 1025.6
14 19.04 ЮЗ 5 21 км н/о +10.6 +8.2 85 +8 +8 1037.2 1025.4
15 19.04 ЮЗ 5 24 км н/о +10.6 +7.7 82 +8 +8 1036.8 1025.1
16 19.04 ЮЗ 5 30 км н/о +10.0 +7.5 84 +7 +7 1036.7 1024.9
17 19.04 ЮЗ 5 50 км н/о +9.4 +6.9 84 +6 +6 1036.6 1024.8
18 19.04 ЮЗ 4 50 км н/о +9.3 +7.1 86 +7 +7 1036.6 1024.8 +11.0
19 19.04 З 4 45 км н/о +9.0 +7.2 88 +6 +6 1036.7 1024.8
20 19.04 ЮЗ 5 45 км н/о +8.9 +7.6 92 +5 +5 1036.8 1025.0
21 19.04 ЮЗ 3 28 км н/о +8.8 +8.1 95 +6 +6 1037.1 1025.3
22 19.04 ЮЗ 3 13 км н/о +8.8 +8.6 99 +6 +6 1037.1 1025.3
23 19.04 З 4 500 м н/о +8.8 +8.8 100 +6 +6 1037.0 1025.2
00 20.04 ЮЗ 3 200 м н/о +8.9 +8.9 100 +6 +6 1037.0 1025.1
01 20.04 З 2 200 м н/о +9.0 +9.0 100 +7 +7 1037.0 1025.1
02 20.04 С 1 3500 м н/о +9.5 +9.5 100 +9 +9 1036.9 1025.1
03 20.04 В 2 4800 м н/о +8.9 +8.9 100 +7 +7 1036.9 1025.1
04 20.04 СВ 1 18 км н/о +8.6 +8.6 100 +8 +8 1036.9 1025.0
05 20.04 СЗ 2 15 км н/о +8.5 +8.5 100 +6 +6 1036.9 1025.0
06 20.04 СЗ 3 26 км н/о +9.2 +9.1 99 +7 +7 1037.1 1025.2 +8.5
07 20.04 СЗ 4 30 км н/о +9.9 +8.5 91 +7 +7 1037.3 1025.5
08 20.04 С 4 35 км н/о +10.0 +8.2 89 +7 +7 1037.3 1025.5
09 20.04 СЗ 4 35 км н/о +10.4 +8.3 87 +8 +8 1037.4 1025.6
10 20.04 СЗ 5 40 км н/о +10.7 +8.1 84 +8 +8 1037.5 1025.7
11 20.04 СЗ 5 45 км н/о +10.9 +7.8 81 +8 +8 1037.5 1025.7
12 20.04 СЗ 4 40 км н/о +11.0 +7.8 81 +9 +9 1037.7 1025.9
13 20.04 СЗ 4 40 км н/о +11.9 +8.4 79 +10 +10 1037.6 1025.9
14 20.04 СЗ 5 50 км н/о +12.1 +8.0 76 +10 +10 1037.4 1025.6
15 20.04 СЗ 4 45 км н/о +12.7 +8.0 73 +11 +11 1036.9 1025.2
16 20.04 СЗ 4 40 км н/о +12.5 +7.6 72 +11 +11 1036.5 1024.8
17 20.04 З 2 50 км н/о +13.1 +8.7 75 +12 +12 1036.4 1024.7
18 20.04 З 2 35 км н/о +10.2 +7.9 86 +9 +9 1036.4 1024.6 +13.1
19 20.04 ЮЗ 2 45 км н/о +9.9 +8.0 88 +8 +8 1036.1 1024.3
20 20.04 З 2 35 км н/о +9.6 +8.2 91 +8 +8 1036.3 1024.5
21 20.04 З 3 45 км н/о +9.5 +8.2 92 +7 +7 1036.4 1024.6
22 20.04 СЗ 3 50 км н/о +9.7 +7.5 86 +7 +7 1036.1 1024.3
23 20.04 СЗ 3 45 км н/о +9.9 +7.7 86 +8 +8 1035.9 1024.1
00 21.04 СЗ 3 45 км н/о +9.8 +7.9 88 +7 +7 1035.7 1023.9
01 21.04 СЗ 3 40 км н/о +9.7 +7.7 87 +7 +7 1035.3 1023.5
02 21.04 СЗ 4 35 км н/о +9.9 +7.7 86 +7 +7 1034.9 1023.1
03 21.04 СЗ 4 35 км н/о +10.1 +7.6 84 +8 +8 1034.5 1022.8
04 21.04 СЗ 4 30 км н/о +9.7 +7.8 88 +7 +7 1034.4 1022.6
05 21.04 СЗ 3 28 км н/о +9.6 +7.7 88 +7 +7 1034.2 1022.4
06 21.04 СЗ 3 23 км н/о +9.3 +7.9 91 +7 +7 1034.2 1022.4 +9.3
07 21.04 СЗ 3 35 км н/о +9.6 +7.4 86 +7 +7 1034.4 1022.6
08 21.04 З 3 35 км н/о +9.9 +7.8 87 +8 +8 1034.6 1022.8
09 21.04 З 5 35 км н/о +10.3 +8.3 87 +7 +7 1034.6 1022.8
10 21.04 З 4 40 км н/о +11.0 +7.8 81 +9 +9 1034.6 1022.9
11 21.04 СЗ 6 50 км н/о +11.5 +6.6 72 +9 +9 1034.7 1022.9
12 21.04 З 6 50 км н/о +12.4 +7.4 72 +10 +10 1034.3 1022.7
13 21.04 З 6 40 км н/о +12.1 +7.7 74 +9 +9 1033.8 1022.1
14 21.04 З 7 45 км н/о +12.4 +7.8 74 +10 +10 1033.5 1021.8
15 21.04 СЗ 8 40 км н/о +11.0 +7.7 80 +7 +7 1033.5 1021.8
16 21.04 СЗ 3 40 км н/о +10.8 +7.1 78 +9 +9 1033.0 1021.3
17 21.04 З 3 27 км н/о +9.7 +8.3 91 +7 +7 1032.7 1021.0
18 21.04 З 4 29 км н/о +9.7 +8.5 92 +7 +7 1032.6 1020.8 +12.7
19 21.04 З 5 40 км н/о +9.8 +7.7 87 +7 +7 1032.6 1020.8
20 21.04 З 4 35 км н/о +9.6 +7.6 87 +7 +7 1032.6 1020.9
21 21.04 З 4 40 км н/о +9.6 +7.7 88 +7 +7 1032.7 1020.9
22 21.04 СЗ 5 35 км н/о +10.1 +7.2 82 +7 +7 1032.7 1020.9
23 21.04 С 4 27 км н/о +9.4 +8.1 92 +6 +6 1032.7 1020.9
00 22.04 С 6 35 км н/о +8.9 +8.2 95 +5 +5 1032.5 1020.7
01 22.04 С 7 50 км н/о +8.5 +7.2 92 +4 +4 1032.4 1020.6
02 22.04 С 7 50 км н/о +8.4 +6.2 86 +4 +4 1032.3 1020.5
03 22.04 С 6 50 км н/о +7.5 +5.4 87 +3 +3 1032.1 1020.2
04 22.04 С 7 40 км н/о +7.9 +5.8 87 +3 +3 1031.8 1020.0
05 22.04 С 6 45 км н/о +7.9 +5.4 84 +4 +4 1031.9 1020.1
06 22.04 С 5 50 км н/о +7.8 +5.3 84 +4 +4 1032.2 1020.4 +7.5
07 22.04 С 6 50 км н/о +7.9 +4.9 81 +4 +4 1032.5 1020.7
08 22.04 С 6 45 км н/о +8.2 +4.5 77 +4 +4 1032.7 1020.9
09 22.04 С 6 35 км н/о +8.5 +5.0 79 +5 +5 1032.6 1020.8
10 22.04 С 6 35 км н/о +9.4 +5.0 74 +6 +6 1032.8 1021.0
11 22.04 С 6 40 км н/о +9.9 +5.0 72 +7 +7 1032.6 1020.8
12 22.04 С 6 50 км н/о +10.2 +5.0 70 +7 +7 1032.3 1020.6
13 22.04 С 6 45 км н/о +10.7 +5.2 69 +8 +8 1032.2 1020.5
14 22.04 С 6 50 км н/о +10.6 +4.1 64 +8 +8 1031.8 1020.1
15 22.04 СЗ 7 50 км н/о +10.4 +4.2 65 +7 +7 1031.4 1019.7
16 22.04 С 6 50 км н/о +9.7 +4.0 68 +6 +6 1031.0 1019.3
17 22.04 С 5 50 км н/о +9.6 +3.4 65 +7 +7 1030.7 1018.9
18 22.04 С 3 50 км н/о +9.2 +4.6 73 +7 +7 1030.6 1018.8 +11.1
19 22.04 СЗ 3 50 км н/о +8.7 +4.9 77 +6 +6 1030.4 1018.6
20 22.04 СЗ 4 50 км н/о +7.9 +4.7 80 +5 +5 1030.4 1018.6
21 22.04 С 2 35 км н/о +7.6 +4.8 82 +6 +6 1030.5 1018.7
22 22.04 С 2 45 км н/о +7.8 +5.3 84 +6 +6 1030.6 1018.8
23 22.04 СВ 2 40 км н/о +7.3 +5.5 88 +6 +6 1030.4 1018.5
00 23.04 СВ 3 35 км н/о +7.3 +6.4 94 +4 +4 1030.2 1018.3
01 23.04 СВ 2 30 км н/о +7.1 +6.4 95 +5 +5 1029.9 1018.0
02 23.04 СВ 1 35 км н/о +7.2 +6.7 97 +6 +6 1029.4 1017.6
03 23.04 С 3 40 км н/о +6.8 +6.0 95 +4 +4 1029.1 1017.3
04 23.04 С 4 45 км н/о +6.7 +5.7 93 +3 +3 1029.0 1017.1
05 23.04 С 5 45 км н/о +5.8 +4.7 93 +1 +1 1028.7 1016.8
06 23.04 С 4 30 км н/о +6.3 +5.3 93 +2 +2 1028.7 1016.9 +5.4
07 23.04 С 4 35 км н/о +7.0 +5.6 91 +4 +4 1029.0 1017.1
08 23.04 С 4 50 км н/о +9.3 +5.7 78 +7 +7 1028.8 1017.1
09 23.04 С 3 45 км н/о +9.4 +5.7 78 +7 +7 1028.9 1017.2
10 23.04 СЗ 3 50 км н/о +9.3 +5.2 76 +7 +7 1028.9 1017.1
11 23.04 СЗ 3 50 км н/о +10.8 +6.5 75 +9 +9 1028.7 1017.0
12 23.04 СЗ 3 50 км н/о +11.1 +6.3 72 +10 +10 1028.1 1016.5
13 23.04 З 4 50 км н/о +10.4 +6.2 75 +8 +8 1027.6 1015.9
14 23.04 СЗ 2 50 км н/о +10.8 +6.0 72 +10 +10 1027.2 1015.6
15 23.04 СЗ 2 50 км н/о +10.8 +5.4 69 +10 +10 1026.6 1014.9
16 23.04 З 3 50 км н/о +9.8 +5.9 77 +8 +8 1026.1 1014.4
17 23.04 ЮЗ 2 50 км н/о +9.7 +5.7 76 +8 +8 1025.6 1013.9
18 23.04 ЮЗ 4 50 км н/о +9.2 +6.0 80 +7 +7 1025.2 1013.5 +11.9
19 23.04 ЮЗ 5 50 км н/о +8.5 +6.3 86 +5 +5 1024.7 1013.0
20 23.04 ЮЗ 5 50 км н/о +8.4 +6.2 86 +5 +5 1024.5 1012.8
21 23.04 ЮЗ 5 50 км н/о +8.9 +7.1 88 +5 +5 1024.3 1012.6
22 23.04 ЮЗ 6 50 км н/о +9.0 +7.2 88 +5 +5 1023.6 1011.9
23 23.04 З 6 40 км н/о +9.1 +7.6 90 +5 +5 1023.1 1011.4
00 24.04 З 6 13 км н/о +9.1 +8.5 96 +5 +5 1022.6 1010.9
01 24.04 СЗ 4 50 км н/о +9.6 +7.8 89 +7 +7 1021.8 1010.1
02 24.04 З 5 28 км н/о +9.1 +8.4 95 +5 +5 1021.2 1009.6
03 24.04 СЗ 4 16 км н/о +8.9 +8.4 97 +6 +6 1020.5 1008.9
04 24.04 З 3 14 км н/о +8.8 +8.5 98 +6 +6 1020.0 1008.3
05 24.04 З 5 29 км н/о +8.9 +8.3 96 +5 +5 1019.5 1007.9
06 24.04 СЗ 6 45 км н/о +9.0 +7.3 89 +5 +5 1019.2 1007.6 +8.3
07 24.04 З 6 45 км н/о +9.0 +7.6 91 +5 +5 1019.2 1007.5
08 24.04 З 7 45 км н/о +9.7 +7.9 89 +6 +6 1018.7 1007.1
09 24.04 З 8 50 км н/о +9.7 +7.0 83 +6 +6 1018.6 1007.0
10 24.04 СЗ 8
{13}
50 км н/о +9.5 +6.7 83 +5 +5 1018.5 1006.9
11 24.04 СЗ 8 45 км н/о +10.2 +7.5 83 +6 +6 1018.1 1006.5
12 24.04 С 8 30 км н/о +8.0 +6.4 90 +3 +3 1018.3 1006.6
13 24.04 С 7 35 км н/о +8.1 +6.3 88 +4 +4 1018.2 1006.5
14 24.04 С 10
{13}
35 км н/о +6.9 +4.5 85 +1 +1 1018.2 1006.5
15 24.04 С 10
{13}
40 км н/о +8.1 +2.5 68 +3 +3 1017.7 1006.1
16 24.04 С 10
{15}
28 км н/о +7.5 +1.6 66 +2 +2 1017.7 1006.0
17 24.04 С 10
{18}
40 км н/о +6.7 +0.9 66 +1 +1 1017.9 1006.2
18 24.04 С 9
{15}
40 км н/о +6.6 -0.9 59 +1 +1 1018.2 1006.4 +10.6
19 24.04 С 11-16
{16}
40 км н/о +6.3 -2.9 52 +1 +1 1018.1 1006.4
20 24.04 С 13-19
{19}
45 км н/о +5.7 -4.7 47 -1 -1 1018.1 1006.3
21 24.04 СЗ 13-18
{19}
50 км н/о +5.0 -5.2 48 -1 -1 1018.5 1006.7
22 24.04 С 12
{17}
40 км н/о +4.6 -3.6 55 -2 -2 1018.4 1006.6
23 24.04 СЗ 12
{17}
35 км н/о +4.6 -2.0 62 -2 -2 1018.0 1006.1
00 25.04 СЗ 12
{17}
35 км н/о +4.8 -0.4 69 -2 -2 1017.5 1005.7
01 25.04 СЗ 12
{16}
30 км н/о +4.8 +0.2 72 -2 -2 1016.9 1005.1
02 25.04 СЗ 12-17
{18}
35 км н/о +4.8 +1.1 77 -2 -2 1016.4 1004.6
03 25.04 СЗ 14
{19}
35 км н/о +4.7 +0.3 73 -3 -3 1016.1 1004.4
04 25.04 С 12-18
{19}
35 км н/о +4.6 -0.1 72 -2 -2 1016.0 1004.2
05 25.04 С 14-20
{20}
40 км н/о +4.1 -0.9 70 -3 -3 1016.4 1004.5

 

Местоположение метеостанции Aberdaron (Великобритания): широта 52.78 долгота -4.73 высота над уровнем моря 94 м.

В архиве по умолчанию представлена погода в Aberdaron за последнюю неделю. Архивные данные за месяц целиком и за предыдущие месяцы, начиная с января 2011 года, Вы можете получить, выбрав интересующий диапазон дат из раскрывающегося списка и нажав кнопку "Ввод!".

Внимание! Время в таблицах - всемирное. Для получения местного времени необходимо прибавить поправку, которая в Aberdaron равна 0 ч.

Смотрите также архив погоды в соседних городах и на ближайших метеорологических станциях:

Погода в Valley (Великобритания) (54 км)
Погода в Mona (Великобритания) (58 км)
Погода в Capel Curig (Великобритания) (64 км)
Погода в Trawsgoed (Великобритания) (71 км)
Погода в Aberporth (Великобритания) (73 км)
Погода в Bala (Великобритания) (79 км)
Погода в Lake Vyrnwy (Великобритания) (85 км)
Погода в Rhyl (Великобритания) (98 км)
Погода в Sennybridge (Великобритания) (109 км)
Погода в Pembrey Sands (Великобритания) (120 км)

Пояснения к столбцам:

Ветер - указаны скорость ветра в м/с - средняя за 10 мин, порывы в срок и между сроками (в фигурных скобках) и направление, откуда дует ветер: С - северный, СВ - северо-восточный, В - восточный, ЮВ - юго-восточный, Ю - южный, ЮЗ - юго-западный, З - западный, СЗ - северо-западный.
Видимость - горизонтальная дальность видимости в метрах или километрах. При видимости от 1 до 10 км при отсутствии осадков обычно наблюдается дымка, при ухудшении видимости до 1 км и менее - туман. В сухую погоду видимость может ухудшаться дымом, пылью или мглою.
Явления - указаны атмосферные явления, наблюдавшиеся в срок или в последний час перед сроком; фигурными скобками обозначены явления, наблюдавшиеся между сроками (за 1-3 часа до срока); квадратными скобками обозначены град или гололедные отложения с указанием их диаметра в мм.
Облачность - указаны через наклонную черту общая и нижняя облачность в баллах и высота нижней границы облаков в метрах; квадратными скобками обозначены формы облаков: Ci - перистые, Cs - перисто-слоистые, Cc - перисто-кучевые, Ac - высококучевые, As - высокослоистые, Sc - слоисто-кучевые, Ns - слоисто-дождевые, Cu - кучевые, Cb - кучево-дождевые. Подробнее классификацию облаков см. в Атласе облаков (PDF).
T - Температура воздуха - температура, измеренная на высоте 2 м над землей.
Td - Температура точки росы - температура, при понижении до которой содержащийся в воздухе водяной пар достигнет насыщения.
f - Относительная влажность воздуха - влажноcть воздуха, измеренная на высоте 2 м над землей.
Te - Эффективная температура - температура, которую ощущает одетый по сезону человек в тени. Характеристика душности погоды. При расчете учитывается влияние влажности воздуха и скорости ветра на теплоощущения человека.
Tes - Эффективная температура на солнце - температура, которую ощущает человек, с поправкой на солнечный нагрев. Характеристика знойности погоды. Зависит от высоты солнца над горизонтом, облачности и скорости ветра. Ночью, в пасмурную погоду, а также при ветре 12 м/с и более поправка равна нулю.
P - Атмосферное давление - приведенное к уровню моря атмосферное давление.
Po - Атмосферное давление - измеренное на уровне метеостанции атмосферное давление.
Tmin - Минимальная температура - минимум температуры воздуха на высоте 2 м над землей.
Tmax - Максимальная температура - максимум температуры воздуха на высоте 2 м над землей.
R - Количество осадков - Количество выпавших осадков за период времени, мм. При наведении курсора мыши на число - период времени, за который выпало указанное количество осадков.
R24 - Количество осадков - Количество выпавших осадков за 24 часа, мм.
S - Снежный покров - Высота снежного покрова, см. При наведении курсора мыши на число - состояние снежного покрова и степень покрытия местности в баллах.